Météo par heure à Julkowo

Ce jour, 17 Juin, Jeudi

Heure Température Précipitation Vent Pression Humidité
00:00 +14°C° 0 mm 3 m/s 755 mmHg 74%
01:00 +13°C° 0 mm 3 m/s 755 mmHg 76%
02:00 +13°C° 0 mm 3 m/s 755 mmHg 78%
03:00 +13°C° 0 mm 3 m/s 755 mmHg 81%
04:00 +13°C° 0 mm 3 m/s 755 mmHg 83%
05:00 +16°C° 0 mm 3 m/s 755 mmHg 79%
06:00 +17°C° 0 mm 3 m/s 755 mmHg 74%
07:00 +19°C° 0 mm 3 m/s 755 mmHg 70%
08:00 +21°C° 0 mm 4 m/s 755 mmHg 66%
09:00 +22°C° 0 mm 4 m/s 756 mmHg 63%
10:00 +25°C° 0 mm 4 m/s 756 mmHg 59%
11:00 +26°C° 0 mm 4 m/s 756 mmHg 56%
12:00 +26°C° 0 mm 4 m/s 756 mmHg 53%
13:00 +27°C° 0 mm 4 m/s 756 mmHg 50%
14:00 +27°C° 0 mm 4 m/s 755 mmHg 49%
15:00 +27°C° 0 mm 3 m/s 755 mmHg 49%
16:00 +27°C° 0 mm 3 m/s 755 mmHg 48%
17:00 +26°C° 0 mm 3 m/s 755 mmHg 55%
18:00 +24°C° 0 mm 3 m/s 755 mmHg 63%
19:00 +22°C° 0 mm 3 m/s 755 mmHg 70%
20:00 +20°C° 0 mm 3 m/s 755 mmHg 72%
21:00 +19°C° 0 mm 3 m/s 755 mmHg 73%
22:00 +18°C° 0 mm 3 m/s 755 mmHg 75%
23:00 +17°C° 0 mm 3 m/s 755 mmHg 76%

Demain, 18 Juin, Vendredi

Heure Température Précipitation Vent Pression Humidité
00:00 +17°C° 0 mm 3 m/s 755 mmHg 77%
01:00 +16°C° 0 mm 3 m/s 755 mmHg 78%
02:00 +16°C° 0 mm 3 m/s 755 mmHg 80%
03:00 +14°C° 0 mm 3 m/s 755 mmHg 82%
04:00 +14°C° 0 mm 3 m/s 755 mmHg 84%
05:00 +17°C° 0 mm 3 m/s 755 mmHg 80%
06:00 +19°C° 0 mm 4 m/s 755 mmHg 76%
07:00 +21°C° 0 mm 4 m/s 755 mmHg 72%
08:00 +23°C° 0 mm 4 m/s 755 mmHg 67%
09:00 +26°C° 0 mm 5 m/s 755 mmHg 62%
10:00 +27°C° 0 mm 5 m/s 755 mmHg 58%
11:00 +28°C° 0 mm 5 m/s 755 mmHg 55%
12:00 +29°C° 0 mm 5 m/s 754 mmHg 52%
13:00 +30°C° 0 mm 5 m/s 754 mmHg 50%
14:00 +30°C° 0 mm 5 m/s 754 mmHg 51%
15:00 +30°C° 0 mm 5 m/s 754 mmHg 52%
16:00 +30°C° 0 mm 5 m/s 753 mmHg 53%
17:00 +28°C° 0 mm 4 m/s 753 mmHg 59%
18:00 +27°C° 0 mm 4 m/s 753 mmHg 66%
19:00 +26°C° 0 mm 3 m/s 753 mmHg 72%
20:00 +23°C° 0 mm 4 m/s 753 mmHg 75%
21:00 +22°C° 0 mm 4 m/s 754 mmHg 77%
22:00 +21°C° 0 mm 4 m/s 754 mmHg 80%
23:00 +20°C° 0 mm 4 m/s 754 mmHg 83%

Après-demain, 19 Juin, Samedi

Heure Température Précipitation Vent Pression Humidité
00:00 +19°C° 0 mm 3 m/s 754 mmHg 85%
01:00 +19°C° 0 mm 3 m/s 754 mmHg 88%
02:00 +18°C° 0 mm 3 m/s 754 mmHg 90%
03:00 +18°C° 0 mm 3 m/s 754 mmHg 91%
04:00 +18°C° 0 mm 3 m/s 754 mmHg 93%
05:00 +19°C° 0 mm 3 m/s 754 mmHg 87%
06:00 +21°C° 0 mm 4 m/s 754 mmHg 81%
07:00 +23°C° 0 mm 4 m/s 754 mmHg 75%
08:00 +25°C° 0 mm 5 m/s 753 mmHg 69%
09:00 +27°C° 0 mm 5 m/s 753 mmHg 64%
10:00 +28°C° 0 mm 5 m/s 753 mmHg 58%
11:00 +29°C° 0 mm 5 m/s 753 mmHg 55%
12:00 +30°C° 0 mm 5 m/s 752 mmHg 52%
13:00 +32°C° 0 mm 5 m/s 752 mmHg 49%
14:00 +32°C° 0 mm 4 m/s 752 mmHg 49%
15:00 +32°C° 0 mm 4 m/s 752 mmHg 49%
16:00 +32°C° 0 mm 4 m/s 752 mmHg 49%
17:00 +30°C° 0 mm 3 m/s 752 mmHg 56%
18:00 +28°C° 0 mm 3 m/s 752 mmHg 64%
19:00 +27°C° 0 mm 3 m/s 751 mmHg 71%
20:00 +26°C° 0 mm 3 m/s 752 mmHg 72%
21:00 +25°C° 0 mm 3 m/s 752 mmHg 74%
22:00 +23°C° 0 mm 4 m/s 752 mmHg 75%
23:00 +22°C° 0 mm 3 m/s 752 mmHg 78%

20 Juin, Dimanche

Heure Température Précipitation Vent Pression Humidité
00:00 +21°C° 0 mm 3 m/s 752 mmHg 81%
01:00 +21°C° 0 mm 3 m/s 752 mmHg 84%
02:00 +20°C° 0 mm 3 m/s 752 mmHg 85%
03:00 +20°C° 0 mm 3 m/s 752 mmHg 86%
04:00 +20°C° 0 mm 3 m/s 751 mmHg 87%
05:00 +21°C° 0 mm 3 m/s 752 mmHg 82%
06:00 +24°C° 0 mm 3 m/s 752 mmHg 78%
07:00 +25°C° 0 mm 4 m/s 752 mmHg 73%
08:00 +26°C° 0 mm 4 m/s 752 mmHg 68%
09:00 +27°C° 0 mm 4 m/s 752 mmHg 63%
10:00 +28°C° 0 mm 4 m/s 752 mmHg 58%
11:00 +29°C° 0 mm 4 m/s 751 mmHg 55%
12:00 +29°C° 0 mm 4 m/s 751 mmHg 52%
13:00 +30°C° 0 mm 4 m/s 751 mmHg 50%
14:00 +30°C° 0 mm 4 m/s 751 mmHg 49%
15:00 +30°C° 0 mm 4 m/s 750 mmHg 49%
16:00 +30°C° 0 mm 4 m/s 750 mmHg 49%
17:00 +29°C° 0 mm 3 m/s 750 mmHg 56%
18:00 +27°C° 0 mm 3 m/s 750 mmHg 62%
19:00 +26°C° 0 mm 2 m/s 750 mmHg 69%
20:00 +25°C° 0 mm 3 m/s 750 mmHg 72%
21:00 +24°C° 0 mm 3 m/s 750 mmHg 75%
22:00 +22°C° 0 mm 4 m/s 750 mmHg 77%
23:00 +21°C° 0 mm 4 m/s 750 mmHg 80%

21 Juin, Lundi

Heure Température Précipitation Vent Pression Humidité
00:00 +21°C° 0 mm 3 m/s 750 mmHg 83%
01:00 +20°C° 0 mm 3 m/s 750 mmHg 85%
02:00 +20°C° 0 mm 3 m/s 749 mmHg 87%
03:00 +19°C° 0 mm 3 m/s 749 mmHg 89%
04:00 +19°C° 0 mm 3 m/s 749 mmHg 90%
05:00 +21°C° 0 mm 4 m/s 749 mmHg 84%
06:00 +22°C° 0 mm 5 m/s 749 mmHg 77%
07:00 +24°C° 0 mm 6 m/s 749 mmHg 71%
08:00 +26°C° 0 mm 6 m/s 749 mmHg 65%
09:00 +28°C° 0 mm 6 m/s 749 mmHg 60%
10:00 +29°C° 0 mm 6 m/s 749 mmHg 55%
11:00 +30°C° 0 mm 6 m/s 749 mmHg 52%
12:00 +32°C° 0 mm 5 m/s 749 mmHg 49%
13:00 +32°C° 0 mm 5 m/s 749 mmHg 47%
14:00 +33°C° 0 mm 5 m/s 749 mmHg 46%
15:00 +33°C° 0 mm 4 m/s 748 mmHg 46%
16:00 +33°C° 0 mm 4 m/s 748 mmHg 46%
17:00 +30°C° 0 mm 4 m/s 748 mmHg 53%
18:00 +28°C° 0 mm 3 m/s 748 mmHg 60%
19:00 +27°C° 0 mm 3 m/s 748 mmHg 67%
20:00 +26°C° 0 mm 3 m/s 748 mmHg 69%
21:00 +25°C° 0 mm 3 m/s 748 mmHg 70%
22:00 +24°C° 0 mm 3 m/s 748 mmHg 72%
23:00 +22°C° 0 mm 3 m/s 748 mmHg 74%

22 Juin, Mardi

Heure Température Précipitation Vent Pression Humidité
00:00 +22°C° 0 mm 3 m/s 748 mmHg 77%
01:00 +21°C° 0 mm 2 m/s 748 mmHg 79%
02:00 +21°C° 0 mm 3 m/s 748 mmHg 81%
03:00 +20°C° 0 mm 3 m/s 748 mmHg 83%
04:00 +20°C° 0 mm 3 m/s 747 mmHg 85%
05:00 +22°C° 0 mm 4 m/s 747 mmHg 81%
06:00 +23°C° 0 mm 4 m/s 747 mmHg 76%
07:00 +25°C° 0 mm 4 m/s 747 mmHg 71%
08:00 +27°C° 0 mm 5 m/s 747 mmHg 67%
09:00 +28°C° 0 mm 5 m/s 747 mmHg 62%
10:00 +29°C° 0 mm 5 m/s 747 mmHg 58%
11:00 +30°C° 0 mm 5 m/s 747 mmHg 54%
12:00 +32°C° 0 mm 4 m/s 747 mmHg 51%
13:00 +33°C° 0 mm 4 m/s 747 mmHg 47%
14:00 +33°C° 0 mm 4 m/s 747 mmHg 46%
15:00 +33°C° 0 mm 4 m/s 747 mmHg 45%
16:00 +33°C° 0 mm 3 m/s 747 mmHg 44%
17:00 +30°C° 1.4 mm 3 m/s 747 mmHg 59%
18:00 +27°C° 1.4 mm 3 m/s 747 mmHg 73%
19:00 +24°C° 1.4 mm 3 m/s 747 mmHg 88%
20:00 +22°C° 4 mm 3 m/s 748 mmHg 90%
21:00 +21°C° 4 mm 2 m/s 748 mmHg 92%
22:00 +22°C° 4 mm 1 m/s 749 mmHg 95%
23:00 +20°C° 0.3 mm 2 m/s 749 mmHg 95%
Voir plus

Nous avons besoin de votre consentement

Meteoprog et ses fournisseurs de services peuvent stocker et accéder à des données personnelles telles que des cookies, des identifiants d'appareils ou d'autres technologies similaires sur votre appareil et traiter ces données pour personnaliser le contenu et les publicités, ainsi que pour fournir des fonctionnalités de médias sociaux et analyser le trafic.

  • Stocker et/ou accéder à des informations sur votre appareil

    Des cookies, des identifiants d'appareils ou d'autres informations peuvent être stockés ou accessibles sur votre appareil aux fins indiquées ci-dessus.

  • Annonces et contenus personnalisés, mesure des annonces et des contenus, connaissance de l'audience et développement de produits

    Les annonces et le contenu peuvent être personnalisés en fonction d'un profil. D'autres données peuvent être ajoutées pour mieux personnaliser les annonces et le contenu. Les performances des publicités et du contenu peuvent être mesurées. Il est possible d'obtenir des informations sur le public qui a vu les publicités et le contenu. Ces données peuvent être utilisées pour développer ou améliorer l'expérience de l'utilisateur, les systèmes et les logiciels.

En cliquant sur "J'accepte", vous autorisez l'utilisation de cookies, des identifiants d'appareils, des balises web ou d'autres technologies similaires. Vos paramètres peuvent être modifiés dans le navigateur de votre appareil.

Dans certains cas, des intérêts légitimes peuvent être invoqués plutôt qu'un consentement. Vous pouvez en savoir plus à ce sujet dans notre Politique de confidentialité et de cookies.